Change the Weather History Date:

Saturday, October 26, 2013

  Actual Average Record
Temperature  
Mean Temperature 46 °F -  
Max Temperature 59 °F 56 °F 84 °F (2014)
Min Temperature 32 °F 33 °F 12 °F (1997)
Degree Days  
Heating Degree Days 20    
Moisture  
Dew Point 32 °F    
Average Humidity 65    
Maximum Humidity 94    
Minimum Humidity 28    
Precipitation  
Precipitation 0.00 in - - ()
Sea Level Pressure  
Sea Level Pressure 30.19 in    
Wind  
Wind Speed 7 mph (NNW)    
Max Wind Speed 15 mph    
Max Gust Speed 21 mph    
Visibility 10 miles    
Events      
Averages and records for this station are not official NWS values.
T = Trace of Precipitation, MM = Missing Value Source: NWS Daily Summary

Daily Weather History Graph

Daily Weather History Graph

Search for Another Location

Airport or City:

Trip Planner

Search our weather history database for the weather conditions in past years. The results will help you decide how hot, cold, wet, or windy it might be!

Date:

Astronomy

Oct. 26, 2013 Rise Set
Actual Time 8:02 AM CDT 6:42 PM CDT
Civil Twilight 7:34 AM CDT 7:10 PM CDT
Nautical Twilight 7:02 AM CDT 7:42 PM CDT
Astronomical Twilight 6:30 AM CDT 8:14 PM CDT
Moon 12:04 AM CDT (10/26) 2:20 PM CDT (10/26)
Length of Visible Light 11h 35m
Length of Day
10h 39m
Waning Gibbous, 53% of the Moon is Illuminated
Oct 26
Waning Gibbous
Oct 26
Last Quarter
Nov 3
New
Nov 9
First Quarter
Nov 17
Full

Hourly Weather History & Observations

Time (CDT) Temp. Windchill Dew Point Humidity Pressure Visibility Wind Dir Wind Speed Gust Speed Precip Events Conditions
12:15 AM 36.5 °F 33.9 °F 33.8 °F 90% 30.08 in 10.0 mi North 3.5 mph - N/A   Clear
12:35 AM 35.6 °F 31.7 °F 33.1 °F 91% 30.08 in 10.0 mi North 4.6 mph - N/A   Clear
12:55 AM 34.9 °F 29.9 °F 32.4 °F 91% 30.08 in 10.0 mi NNW 5.8 mph - N/A   Clear
1:15 AM 35.1 °F 30.1 °F 32.9 °F 92% 30.08 in 10.0 mi NW 5.8 mph - N/A   Clear
1:35 AM 34.9 °F 29.9 °F 32.9 °F 92% 30.08 in 10.0 mi WNW 5.8 mph - N/A   Clear
1:55 AM 35.8 °F 29.4 °F 33.8 °F 92% 30.08 in 10.0 mi WNW 8.1 mph - N/A   Clear
2:15 AM 36.7 °F 31.2 °F 34.9 °F 93% 30.09 in 10.0 mi WNW 6.9 mph - N/A   Clear
2:35 AM 39.4 °F 33.8 °F 36.9 °F 91% 30.09 in 10.0 mi NNW 8.1 mph - N/A   Clear
2:55 AM 44.2 °F 38.4 °F 39.9 °F 85% 30.10 in 10.0 mi North 11.5 mph - N/A   Clear
3:15 AM 47.3 °F - 41.0 °F 79% 30.11 in 10.0 mi North 15.0 mph - N/A   Clear
3:35 AM 48.2 °F - 40.5 °F 75% 30.11 in 10.0 mi North 15.0 mph - N/A   Clear
3:55 AM 47.3 °F - 40.1 °F 76% 30.12 in 10.0 mi North 11.5 mph - N/A   Clear
4:15 AM 45.7 °F 41.0 °F 39.2 °F 78% 30.13 in 10.0 mi North 9.2 mph - N/A   Clear
4:35 AM 44.6 °F 40.7 °F 38.3 °F 79% 30.13 in 10.0 mi North 6.9 mph - N/A   Clear
4:55 AM 43.3 °F 39.2 °F 37.6 °F 80% 30.14 in 10.0 mi North 6.9 mph - N/A   Clear
5:15 AM 42.8 °F 38.0 °F 37.2 °F 81% 30.15 in 10.0 mi NNW 8.1 mph - N/A   Clear
5:35 AM 39.2 °F 35.0 °F 35.4 °F 86% 30.16 in 10.0 mi NW 5.8 mph - N/A   Clear
5:55 AM 39.0 °F 34.8 °F 35.2 °F 86% 30.17 in 10.0 mi NNW 5.8 mph - N/A   Clear
6:15 AM 40.3 °F 35.5 °F 36.3 °F 86% 30.18 in 10.0 mi NNW 6.9 mph - N/A   Clear
6:35 AM 35.8 °F 30.1 °F 32.9 °F 89% 30.19 in 10.0 mi WNW 6.9 mph - N/A   Clear
6:55 AM 36.9 °F 30.7 °F 34.0 °F 89% 30.20 in 10.0 mi WNW 8.1 mph - N/A   Clear
7:15 AM 36.0 °F 30.3 °F 33.3 °F 90% 30.20 in 10.0 mi NW 6.9 mph - N/A   Clear
7:35 AM 34.2 °F 29.0 °F 31.8 °F 91% 30.21 in 10.0 mi WNW 5.8 mph - N/A   Clear
7:55 AM 33.8 °F 29.6 °F 32.0 °F 93% 30.22 in 10.0 mi WNW 4.6 mph - N/A   Clear
8:15 AM 32.5 °F 26.2 °F 30.9 °F 94% 30.23 in 10.0 mi NW 6.9 mph - N/A   Clear
8:35 AM 33.6 °F 26.8 °F 31.6 °F 92% 30.24 in 10.0 mi NW 8.1 mph - N/A   Clear
8:55 AM 36.7 °F 32.9 °F 33.8 °F 89% 30.25 in 10.0 mi NW 4.6 mph - N/A   Clear
9:15 AM 39.9 °F 35.8 °F 36.1 °F 86% 30.26 in 10.0 mi NW 5.8 mph - N/A   Clear
9:35 AM 42.6 °F 38.4 °F 36.1 °F 78% 30.27 in 10.0 mi NNW 6.9 mph - N/A   Clear
9:55 AM 43.9 °F 39.9 °F 35.2 °F 72% 30.27 in 10.0 mi North 6.9 mph - N/A   Clear
10:15 AM 45.1 °F 39.5 °F 32.0 °F 60% 30.27 in 10.0 mi North 11.5 mph 17.3 mph N/A   Clear
10:35 AM 46.0 °F 41.4 °F 32.5 °F 59% 30.28 in 10.0 mi North 9.2 mph 17.3 mph N/A   Clear
10:55 AM 46.9 °F - 32.7 °F 58% 30.29 in 10.0 mi North 13.8 mph - N/A   Clear
11:15 AM 48.2 °F - 32.2 °F 54% 30.29 in 10.0 mi North 12.7 mph - N/A   Clear
11:35 AM 48.9 °F - 32.0 °F 52% 30.29 in 10.0 mi North 9.2 mph 12.7 mph N/A   Clear
11:55 AM 50.0 °F - 32.0 °F 50% 30.29 in 10.0 mi North 10.4 mph - N/A   Clear
12:15 PM 51.8 °F - 30.7 °F 45% 30.29 in 10.0 mi North 12.7 mph 20.7 mph N/A   Clear
12:35 PM 52.2 °F - 29.7 °F 42% 30.29 in 10.0 mi North 12.7 mph 18.4 mph N/A   Clear
12:55 PM 53.2 °F - 29.5 °F 40% 30.29 in 10.0 mi North 11.5 mph - N/A   Clear
1:15 PM 54.1 °F - 28.8 °F 38% 30.28 in 10.0 mi North 11.5 mph 16.1 mph N/A   Clear
1:35 PM 54.9 °F - 28.8 °F 37% 30.27 in 10.0 mi NNE 6.9 mph - N/A   Clear
1:55 PM 56.1 °F - 27.5 °F 33% 30.26 in 10.0 mi North 9.2 mph - N/A   Clear
2:15 PM 56.3 °F - 25.3 °F 30% 30.25 in 10.0 mi North 13.8 mph 19.6 mph N/A   Clear
2:35 PM 56.8 °F - 25.2 °F 30% 30.24 in 10.0 mi NNW 10.4 mph - N/A   Clear
2:55 PM 57.6 °F - 25.7 °F 29% 30.24 in 10.0 mi NNW 13.8 mph 17.3 mph N/A   Clear
3:15 PM 57.6 °F - 25.9 °F 30% 30.23 in 10.0 mi NNW 9.2 mph - N/A   Clear
3:35 PM 58.1 °F - 26.1 °F 29% 30.22 in 10.0 mi NNW 8.1 mph - N/A   Clear
3:55 PM 58.5 °F - 26.1 °F 29% 30.21 in 10.0 mi NNW 5.8 mph - N/A   Clear
4:15 PM 58.5 °F - 26.4 °F 29% 30.21 in 10.0 mi North 4.6 mph - N/A   Clear
4:35 PM 59.0 °F - 27.9 °F 31% 30.20 in 10.0 mi NW 10.4 mph - N/A   Clear
4:55 PM 59.0 °F - 27.0 °F 29% 30.20 in 10.0 mi NW 9.2 mph - N/A   Clear
5:15 PM 59.0 °F - 25.9 °F 28% 30.19 in 10.0 mi NNW 8.1 mph - N/A   Clear
5:35 PM 58.1 °F - 27.9 °F 32% 30.19 in 10.0 mi NW 6.9 mph - N/A   Clear
5:55 PM 57.2 °F - 27.9 °F 33% 30.18 in 10.0 mi NNW 3.5 mph - N/A   Clear
6:15 PM 57.2 °F - 26.6 °F 31% 30.18 in 10.0 mi Calm Calm - N/A   Clear
6:35 PM 55.2 °F - 26.4 °F 33% 30.18 in 10.0 mi Calm Calm - N/A   Clear
6:55 PM 50.0 °F - 30.6 °F 47% 30.18 in 7.0 mi Calm Calm - N/A   Clear
7:15 PM 49.6 °F - 27.9 °F 43% 30.17 in 10.0 mi Calm Calm - N/A   Clear
7:35 PM 45.7 °F - 29.3 °F 53% 30.17 in 10.0 mi Calm Calm - N/A   Clear
7:55 PM 43.0 °F - 31.1 °F 63% 30.17 in 10.0 mi Calm Calm - N/A   Clear
8:15 PM 42.8 °F 41.1 °F 30.0 °F 61% 30.16 in 7.0 mi South 3.5 mph - N/A   Clear
8:35 PM 41.5 °F 39.6 °F 30.4 °F 65% 30.16 in 7.0 mi SSE 3.5 mph - N/A   Clear
8:55 PM 39.7 °F 37.6 °F 30.2 °F 69% 30.15 in 7.0 mi South 3.5 mph - N/A   Clear
9:15 PM 39.2 °F - 30.2 °F 70% 30.15 in 7.0 mi Calm Calm - N/A   Clear
9:35 PM 38.3 °F 35.9 °F 30.0 °F 72% 30.14 in 10.0 mi South 3.5 mph - N/A   Clear
9:55 PM 36.7 °F 34.1 °F 29.5 °F 75% 30.15 in 7.0 mi SSE 3.5 mph - N/A   Clear
10:15 PM 37.0 °F 34.5 °F 29.5 °F 74% 30.14 in 10.0 mi South 3.5 mph - N/A   Clear
10:35 PM 36.5 °F - 29.8 °F 77% 30.14 in 10.0 mi Calm Calm - N/A   Clear
10:55 PM 36.7 °F - 29.8 °F 76% 30.14 in 10.0 mi Calm Calm - N/A   Clear
11:15 PM 32.9 °F 29.8 °F 29.1 °F 86% 30.13 in 5.0 mi ESE 3.5 mph - N/A   Clear
11:35 PM 34.5 °F 30.4 °F 29.3 °F 81% 30.13 in 5.0 mi SE 4.6 mph - N/A   Haze
11:55 PM 34.7 °F 30.6 °F 28.9 °F 79% 30.12 in 10.0 mi ESE 4.6 mph - N/A   Clear